OBJECT E, 45915

Orbit data source: Space-Track

You're viewing an Uncataloged Satellite

Recently launched and/or uncataloged satellites may have evolving metadata. Metadata may include but not limited to: Owner, Maufacturer, Bus, Motor, and Mission.

OBJECT E, 45915 is a satellite owned by TsNIIKhM (CIS) in SSO that was launched on Mon, 25 Nov 2019 UTC via a SOYUZ-2-1V launch vehicle from the Plesetsk Missile And Space Complex (PKMTR). Unknown objects in Earth's orbit typically refer to objects detected orbiting the Earth but have not yet been identified or cataloged. These objects could be anything from previously untracked satellites, spent rocket stages, debris from satellite collisions, or even natural meteoroids temporarily captured by Earth's gravity.

Loading next visibility...
OBJECT E details
Identifier
45915, 2019-079E
Orbit
SSO
Last TLE update10 hours ago
Origin
Flag of CISTsNIIKhM (CIS)
ManufacturerTsNIIKhM
MissionDefense Technology
Bus & MotorUnknown
MassUnknown
Launch date (UTC)
2019-11-25 (5 years ago)
Launch vehicle
SOYUZ-2-1V
Launch site
Plesetsk Missile And Space Complex (PKMTR)
Object typeUnknown
Shape & HBRUnknown
Radar Cross SectionMedium (>0.1 m² and <1 m²)

Expand to show TLE details & history

TLE from 10 hours ago
0 OBJECT E
1 45915U 19079E   24361.53315779  .00006940  00000-0  66607-3 0  9993
2 45915  97.6769  15.4859 0178120 316.0410  42.6749 14.82156555239903
Epoch: 2024-12-26T12:47Z
Definitive object data (Epoch: 2024-12-26T12:47:44.833Z)
Latitude-0.00002°
Longitude88.03791°
Altitude534.902 km
Speed7.644 km/s
True Right ascension01h 01m 56s
True Declination0° 00' 00"
Sunlit
Object was in daylight at TLE epoch
Visualization TLE readout
Latitude65.95295°
Longitude-74.06651°
Altitude749.48 km
Speed7.424 km/s
Apparent Right ascension11h 47m 40s
Apparent Declination19° 13' 46"
Sunlit
Object is in daylight
Visualization observer readout
Local Sidereal Time22:24:56
Azimuth337.852° N
Elevation-27.786°
Doppler factor1
Orbital elements
Apogee altitude744.195 km
Perigee altitude494.909 km
Semi-major axis6,997.689 km
Eccentricity0.017812
Inclination97.6769°
RAAN15.4859°
Arg. of periapsis316.041°
True anomaly44.08131°
Mean anomaly42.6749°
Eccentric anomaly43.3758°
Mean motion3.70776 °/min
BSTAR0.00066607
Orbital period97.09 mins
Loading maneuver chart data...
Loading historical data...
Loading historical data...
Loading historical data...
Loading historical data...
Loading historical data...
Loading historical data...
Loading historical data...

OBJECT E Visibility forecast

Observer location: undefined°, undefined

Span
Click to sort rows by Start time (UTC) header in descending order
Start Az.
Max El. time (UTC)
Max El. Az.
Max El.
End time (UTC)
End Az.
6 mins2024-12-27 00:16:40.819Z117.449° SE2024-12-27 00:19:40.819Z70.496° E20.848°2024-12-27 00:22:40.819Z21.211° NNE
6 mins2024-12-27 01:53:40.819Z217.736° SW2024-12-27 01:55:40.819Z260.236° W26.221°2024-12-27 01:59:40.819Z326.166° NNW
8 mins2024-12-27 13:40:40.819Z26.152° NE2024-12-27 13:44:40.819Z116.764° SE38.786°2024-12-27 13:48:40.819Z175.815° S
4 mins2024-12-27 15:18:40.819Z314.974° NW2024-12-27 15:19:40.819Z300.404° NW17.163°2024-12-27 15:22:40.819Z259.616° W
|